Location: Beuvrequen
(50.8014°N, 1.6652°E)
Time: 03:54:18
(UTC+00:00)

SL-8 Rocket - Pass Details

Date: 16 October 2021
Orbit: 956 x 991 km, 82.9° (Epoch: 28 November)

Event Time Altitude Azimuth Distance (km) Brightness Sun altitude
Rises 17:24:14 0° 183° (S) 3,693 7.2 -4.8°
Reaches altitude 10° 17:26:45 10° 183° (S) 2,748 6.5 -5.2°
Maximum altitude 17:33:04 81° 97° (E) 1,009 4.1 -6.2°
Drops below altitude 10° 17:39:24 10° 11° (NNE) 2,758 6.2 -7.2°
Sets 17:41:56 0° 11° (N) 3,706 6.9 -7.6°
